Regional Weather Roundup
Issued by NWS Cleveland, OH

Current Version | Previous Version | Text Only | Print | Product List | Glossary On
Versions: 1 2 3 4 5 6 7 8 9 10 11 12 13 14 15 16 17 18 19 20 21 22 23 24 25 26 27 28 29 30 31 32 33 34 35 36 37 38 39 40 41 42 43 44 45 46 47 48 49 50
000
ASUS41 KCLE 032012
RWRCLE
OHIO REGIONAL WEATHER ROUNDUP
NATIONAL WEATHER SERVICE WILMINGTON, OH
400 PM EDT WED JUN 03 2020

NOTE: "FAIR" INDICATES FEW OR NO CLOUDS BELOW 12,000 FEET WITH NO
SIGNIFICANT WEATHER AND/OR OBSTRUCTIONS TO VISIBILITY.

OHZ001>008-015>018-024>027-034-035-043-044-032100-
   NORTHWEST OHIO

CITY           SKY/WX    TMP DP  RH WIND       PRES   REMARKS
DEFIANCE       FAIR      81  60  48 NW10      29.82F
FINDLAY        CLOUDY    83  61  47 NW16      29.81F
TOLEDO EXPRESS FAIR      84  58  40 W10G21    29.80F
TOLEDO EXEC    FAIR      83  60  45 W15G21    29.81S
LIMA           FAIR      85  62  46 W17G24    29.84F
$$

OHZ009>014-019>023-028>033-038-089-032100-
   NORTHEAST OHIO

CITY           SKY/WX    TMP DP  RH WIND       PRES   REMARKS
CLE-HOPKINS    CLOUDY    77  62  59 W17G25    29.79S
CLE-LAKEFRONT  FAIR      68  60  75 W10       29.77R
CUY CO. ARPT   CLOUDY    75  63  64 W16G25    29.78R
LORAIN-ELYRIA  PTSUNNY   79  59  50 NW14G23   29.79R
ASHTABULA      LGT RAIN  76  63  64 W20G26    29.77R
AKRON-CANTON   CLOUDY    83  62  49 W18       29.79R
WOOSTER        FAIR      82  61  48 W20G26    29.81S
MANSFIELD      FAIR      84  62  47 W12G24    29.83S
YOUNGSTOWN     CLOUDY    81  58  45 NW16G24   29.75S
$$

OHZ042-051>053-060>062-070>072-077>081-032100-
  SOUTHWEST OHIO

CITY           SKY/WX    TMP DP  RH WIND       PRES   REMARKS
CINC-COVINGTON FAIR      87  63  44 W12       29.86F
CINC-LUNKEN    FAIR      88  67  49 W14       29.84F HX  91
HAMILTON       FAIR      88  69  53 W12       29.85F HX  92
DAYTON         PTSUNNY   87  63  44 NW10      29.84F
WRIGHT-PAT AFB PTSUNNY   86  66  51 W10       29.82F
DAYTON GENERAL PTSUNNY   88  67  49 SW15      29.84F HX  91
WILMINGTON     FAIR      87  66  49 W20       29.85F
$$

OHZ036-037-039>041-045>050-054>059-063>069-073>076-082>088-032100-
  CENTRAL AND SOUTHEAST OHIO

CITY           SKY/WX    TMP DP  RH WIND       PRES   REMARKS
COLUMBUS       CLOUDY    89  62  40 N16G24    29.81F
OSU AIRPORT    FAIR      86  63  45 NW14      29.82F
BOLTON FIELD   MOSUNNY   88  63  42 W16G23    29.83F
RICKENBACK AFB PTSUNNY   87  64  46 NW14      29.81F
NEWARK         PTSUNNY   90  62  39 NW17G26   29.81F HX  90
MARION         FAIR      85  61  44 W12G24    29.83F
LANCASTER      FAIR      87  66  49 VRB7      29.83F
ZANESVILLE     PTSUNNY   87  63  44 W15G24    29.81F
NEW PHILLY     PTSUNNY   86  62  44 W13G23    29.80S
$$




USA.gov is the U.S. government's official web portal to all federal, state and local government web resources and services.